Location: Frocourt
(49.3827°N, 2.0847°E)
Time: 18:42:38
(UTC+00:00)

Daily predictions for brighter satellites

Satellite Brightness Start Highest point End
(mag) Time Altitude Azimuth Time Altitude Azimuth Time Altitude Azimuth
Cosmos 1864 Rocket 4.5 18:40:53 10° S 18:47:07 78° E 18:53:18 10° NNE
DMSP B5D1-3 4.5 18:43:13 10° NNE 18:48:17 66° ESE 18:53:19 10° S
SPOT 1/Viking Rocket 3.6 18:43:55 10° SSE 18:49:05 71° ENE 18:54:15 10° N
ATLAS 2AS CENTAUR R/B 3.5 18:45:03 10° WSW 18:52:14 59° NW 18:59:10 10° NE
ATLAS CENTAUR R/B 3.3 18:50:20 10° WNW 18:54:58 56° SW 19:02:12 10° SE
Cosmos 1898 Rocket 3.8 18:50:00 10° NNW 18:55:20 75° WSW 19:00:36 10° SSE
Cosmos 1151 Rocket 2.9 18:52:45 10° N 18:57:03 75° E 19:01:18 10° SSE
ARGOS Delta rocket 4.1 18:52:37 10° SSE 18:57:40 57° ENE 19:02:29 10° N
Cosmos 2360 Rocket 2.2 18:52:03 10° SSW 18:57:42 89° ESE 19:03:24 10° NNE
Okean O Rocket 2.7 18:55:19 10° ESE 18:59:01 27° ENE 19:02:44 10° N
Cosmos 1340 2.6 18:57:15 10° S 19:00:21 42° E 19:03:29 10° NNE
USA 186 2.3 18:59:25 10° SE 19:02:25 39° ENE 19:05:29 10° N
Meteor PRIRODA 3.4 18:59:26 10° SSE 19:02:45 88° WSW 19:06:04 10° NNW
Resurs 01 Rocket 2.0 18:59:11 10° SE 19:03:26 47° ENE 19:07:41 10° N
Cosmos 2322 Rocket 2.7 19:00:57 10° SW 19:06:38 67° WNW 19:12:21 10° NNE
Cosmos 2237 Rocket 3.9 19:05:11 10° ESE 19:07:02 12° E 19:08:54 10° ENE
Helios 1A 2.8 19:05:08 10° NNE 19:09:13 67° ESE 19:13:14 10° S
ACS3 Solar Sail 2.5 19:06:09 10° SE 19:11:59 39° ENE 19:17:51 10° N
BlueWalker 3 2.1 19:08:34 10° WNW 19:12:18 63° NNE 19:15:32 13° E
NOSS 2-1 (E) 4.0 19:09:13 10° NNW 19:12:40 41° NE 19:16:31 13° ESE
Cosmos 44 Rocket 3.2 19:08:10 10° NW 19:12:59 78° NE 19:17:37 10° SE
Cosmos 2333 Rocket 2.5 19:08:51 10° SW 19:14:37 76° WNW 19:20:25 10° NNE
Okean-O 3.9 19:12:12 12° ESE 19:15:14 23° ENE 19:18:43 10° N
SL-08 R/B 3.5 19:11:41 10° NNE 19:16:38 85° WNW 19:21:33 10° SSW
Feng Yun 1-1 Rocket 4.4 19:11:28 10° SSE 19:17:06 62° ENE 19:22:54 10° N
ATLAS 3B R/B 4.0 19:10:06 10° NW 19:17:33 47° WSW 19:24:48 10° S
SKYMED 3 4.5 19:13:47 10° NNE 19:17:57 87° WNW 19:22:04 10° SSW
Cosmos 2219 Rocket 2.2 19:12:57 10° SSW 19:18:36 72° ESE 19:24:16 10° NNE
Cosmos 1626 3.6 19:18:55 10° NNW 19:21:38 31° W 19:24:21 10° SSW
Meteor 1-5 Rocket 4.3 19:16:23 10° SSW 19:22:00 85° WNW 19:27:51 10° NNE
NOSS 2-1 (D) 3.7 19:19:12 10° NNW 19:22:43 51° NE 19:26:15 16° ESE
CSL-04 Rocket 3.7 19:18:22 10° SSE 19:23:40 64° ENE 19:28:57 10° N
BREEZE-M DEB (TANK) 2.0 19:21:45 10° SW 19:23:45 43° SSE 19:25:16 18° E
Cosmos 1842 3.6 19:21:56 10° N 19:25:20 37° ENE 19:27:54 16° SE
SL-16 R/B 4.0 19:21:48 10° WSW 19:26:58 35° NW 19:32:10 10° NNE
USA 229 DEB 4.3 19:19:41 10° NW 19:27:04 71° SW 19:35:06 10° SSE
USA 229 4.3 19:19:50 10° NW 19:27:14 71° SW 19:35:14 10° SSE
CZ-4B R/B 4.4 19:25:11 10° S 19:29:44 46° W 19:34:21 10° NNW
SJ-6B 3.9 19:26:28 10° S 19:29:58 42° W 19:33:26 10° NNW
Cosmos 1766 Rocket 3.6 19:28:01 10° S 19:32:14 54° E 19:36:31 10° NNE
USA 267 3.9 19:29:00 10° E 19:35:14 50° N 19:41:32 10° WNW
Cosmos 2369 Rocket 4.3 19:33:02 10° N 19:35:44 13° NNE 19:38:25 10° NE
BREEZE-M R/B 3.8 19:32:35 10° W 19:36:45 87° S 19:49:00 13° E
Meteor 2-17 Rocket 4.5 19:32:34 10° N 19:38:35 61° ENE 19:44:32 10° SSE
Cosmos 2322 3.7 19:33:54 10° S 19:39:25 59° ESE 19:44:59 10° NE
USA 276 1.8 19:37:29 10° W 19:40:20 74° N 19:41:31 29° E
Cosmos 1066 Rocket 4.4 19:35:16 10° NNW 19:41:10 83° W 19:47:00 10° S
Cosmos 1400 Rocket 2.8 19:38:29 10° NNW 19:42:21 77° W 19:46:09 10° S
PSLV R/B 3.9 19:44:58 25° SE 19:46:44 47° ENE 19:50:11 10° N
Cosmos 1707 2.6 19:43:26 10° N 19:46:57 55° ENE 19:48:44 25° SE
Cosmos 1315 Rocket 4.0 19:44:07 10° NNE 19:47:25 25° ENE 19:48:17 23° E
CZ-4 R/B 2.6 19:44:55 10° SSW 19:48:29 39° W 19:52:06 10° NNW
Cosmos 1733 3.8 19:49:19 28° E 19:49:24 28° E 19:52:24 10° NNE
Cosmos 1891 Rocket 4.4 19:43:26 10° S 19:49:25 67° E 19:55:32 10° NNE
Cosmos 1726 2.6 19:46:47 10° SSW 19:49:30 45° WNW 19:52:14 10° N
Cosmos 1408 Rocket 4.5 19:50:28 26° ESE 19:51:23 28° E 19:55:08 10° NNE
Cosmos 1536 3.0 19:55:08 26° SSE 19:56:49 44° E 20:00:29 10° NNE
KORONAS-FOTON 3.7 19:53:31 10° N 19:57:14 85° W 19:59:47 19° S
Lacrosse 4 Rocket 2.0 19:53:09 10° NW 19:57:25 55° WSW 20:00:26 18° S
COSMOS 2428 2.6 19:52:50 10° SSW 19:58:29 68° ESE 20:04:11 10° NNE
Cosmos 1818 3.5 19:53:12 10° SW 19:58:40 86° SE 20:04:12 10° NE
Nadezhda 4 Rocket 4.1 19:55:11 10° N 20:01:22 60° ENE 20:05:35 21° SSE
Cosmos 1356 Rocket 3.3 19:57:20 10° N 20:01:33 76° ENE 20:03:50 26° SSE
Meteor 1-4 Rocket 2.0 19:58:53 10° NNW 20:01:34 68° W 20:02:21 40° S
Cosmos 1943 Rocket 2.5 19:58:34 10° NNW 20:03:56 50° NE 20:06:28 29° ESE
Cosmos 1674 3.6 20:02:14 10° NNW 20:05:25 41° W 20:08:24 11° SSW
Meteor 1-14 Rocket 4.1 20:00:52 10° S 20:06:24 85° ESE 20:11:59 10° NNE
Cosmos 1328 Rocket 4.2 20:02:25 10° NNW 20:06:37 53° W 20:10:47 10° S
Cosmos 1513 Rocket 4.3 20:02:16 10° S 20:08:20 83° E 20:14:26 10° N
USA 59 Rocket 0.1 20:05:52 10° NW 20:09:39 75° SW 20:11:54 31° SSE
Terra 2.5 20:09:10 31° E 20:10:25 36° ENE 20:14:43 10° N
Cosmos 1464 Rocket 4.0 20:05:38 10° S 20:11:51 70° E 20:18:12 10° NNE
Meteor 1-11 Rocket 3.8 20:09:42 17° SSE 20:13:52 54° E 20:19:17 10° NNE
Cosmos 1805 Rocket 4.4 20:14:26 30° ENE 20:14:26 30° ENE 20:17:47 10° NNE
Ariane Rocket 3.9 20:14:45 29° E 20:15:56 32° ENE 20:20:24 10° N
Cosmos 1125 Rocket 3.6 20:11:40 10° NNW 20:16:49 61° ENE 20:18:45 37° SE
SPOT 3 Rocket 4.4 20:17:16 29° E 20:18:26 33° ENE 20:23:00 10° N
USA 290 2.2 20:16:06 10° NNW 20:19:23 79° WSW 20:19:43 67° S
Cosmos 2278 Rocket 2.1 20:14:29 10° NNW 20:20:12 89° NE 20:22:57 32° SSE
ERS-1 Rocket 3.1 20:19:35 38° ESE 20:21:13 54° ENE 20:26:07 10° N
CZ-4B R/B 4.3 20:16:55 10° S 20:22:06 42° W 20:27:15 10° NNW
BREEZE-M DEB (TANK) 3.9 20:19:15 10° W 20:22:23 87° N 20:26:06 26° E
Meteor 2-9 Rocket 4.2 20:20:43 31° SSE 20:23:03 54° E 20:28:18 10° NNE
USA 306 4.0 20:22:01 10° SW 20:23:20 22° SSW 20:23:20 22° SSW
NOSS 2-1 (C) 4.0 20:22:26 10° NW 20:26:09 53° SW 20:27:51 34° S
SPOT 5 2.7 20:24:19 33° SSE 20:26:27 89° WSW 20:31:03 10° NNW
IRS-1A Rocket 4.3 20:25:49 34° SE 20:28:27 72° ENE 20:34:10 10° NNW
Cosmos 2034 Rocket 3.9 20:26:34 22° S 20:30:38 66° E 20:36:46 10° NNE
Aureole 1 4.4 20:29:27 10° NNW 20:32:22 65° W 20:32:22 65° W
Okean 3 Rocket 3.8 20:28:16 11° SSW 20:32:34 71° W 20:37:03 10° N
Okean O Rocket 2.8 20:31:48 15° SSW 20:35:07 40° W 20:39:18 10° NNW
Cosmos 2208 Rocket 4.5 20:35:49 40° E 20:35:49 40° E 20:40:20 10° NE
NOSS 0 Rocket 3.8 20:32:46 10° SSW 20:39:01 81° ESE 20:45:18 10° NNE
Resurs 01 Rocket 3.9 20:36:39 10° SW 20:40:05 22° W 20:43:32 10° NW
USA 215 3.4 20:35:45 10° ENE 20:42:01 46° SE 20:48:14 10° SSW
Meteor 1-21 4.4 20:41:03 10° N 20:46:41 55° ENE 20:47:41 48° ESE
Cosmos 2228 Rocket 4.0 20:42:48 10° N 20:46:31 35° ENE 20:46:31 35° ENE
MOS 1 Rocket 3.5 20:45:58 44° S 20:47:35 78° WSW 20:52:48 10° NNW
Cosmos 2237 Rocket 2.0 20:46:17 21° SSW 20:50:02 71° ESE 20:55:39 10° NNE
BlueWalker 3 3.0 20:46:45 10° WNW 20:49:46 36° WSW 20:49:46 36° WSW
Okean-O 3.5 20:49:39 30° SSW 20:51:20 46° W 20:55:36 10° NNW
Cosmos 1805 4.2 20:55:18 35° NNE 20:55:18 35° NNE 20:57:34 10° NNE
Aureole 3 Rocket 4.0 20:47:44 16° S 20:53:58 85° E 20:59:29 10° NNE
ACS3 Solar Sail 2.8 20:50:27 13° SSW 20:55:59 45° W 21:02:06 10° NNW
Sich 1 2.9 20:57:04 80° NNE 20:57:04 80° NNE 21:01:11 10° N
CZ-4C R/B 4.4 20:56:13 10° NNE 20:58:27 34° NNE 20:58:27 34° NNE
Cosmos 2219 Rocket 4.3 20:58:21 10° W 21:03:06 26° NW 21:07:51 10° NNE
Cosmos 2279 Rocket 4.3 21:06:50 46° E 21:06:50 46° E 21:12:36 10° NNE
BREEZE-M DEB (TANK) 3.6 20:52:11 10° W 21:09:18 90° NNE 21:10:46 53° E
Cosmos 1500 Rocket 3.9 21:11:22 58° WSW 21:11:45 61° WNW 21:16:06 10° N
Cosmos 1743 Rocket 3.9 21:16:41 63° NNW 21:16:41 63° NNW 21:20:28 10° N
USA 267 3.2 21:16:20 56° ESE 21:17:57 86° NNE 21:24:33 10° WNW
Cosmos 1980 3.9 21:13:06 10° SW 21:18:46 71° WNW 21:24:29 10° NNE
Cosmos 2369 Rocket 2.8 21:15:56 10° NNW 21:21:23 43° NE 21:21:39 42° ENE
Cosmos 2298 Rocket 4.0 21:16:46 10° NNW 21:22:04 77° WSW 21:22:14 76° SW
Spot 2 Rocket 3.6 21:21:59 63° SW 21:22:19 65° WSW 21:27:21 10° NNW
Cosmos 1315 Rocket 4.3 21:19:58 10° NNW 21:23:29 32° W 21:23:29 32° W
Cosmos 2150 Rocket 4.0 21:22:01 10° NNW 21:27:07 70° WSW 21:27:07 70° WSW
Cosmos 1975 4.4 21:32:52 30° N 21:32:52 30° N 21:34:58 10° N
SL-16 R/B 3.3 21:49:08 34° NE 21:49:08 34° NE 21:52:22 10° NE
NOSS 3-4 (A) 3.9 21:40:17 10° NW 21:46:58 68° NE 21:47:59 61° E
NOSS 3-4 (C) 3.9 21:40:23 10° NW 21:47:03 67° NE 21:48:05 60° E
Cosmos 1943 Rocket 3.4 21:42:40 10° NW 21:47:26 31° WSW 21:47:58 30° WSW
Terra 3.2 21:47:52 31° W 21:48:02 31° W 21:52:13 10° NNW
Ariane Rocket 3.9 21:54:54 41° W 21:54:54 41° W 21:59:32 10° NNW
Cosmos 2266 Rocket 4.1 21:49:44 10° N 21:55:29 65° NE 21:55:29 65° NE
SPOT 3 Rocket 4.4 21:57:52 41° W 21:57:52 41° W 22:02:35 10° NNW
USA 59 Rocket 2.8 21:57:25 10° W 21:58:17 11° WSW 21:58:17 11° WSW
Cosmos 2278 Rocket 4.3 22:00:05 10° WNW 22:03:28 16° W 22:04:48 15° WSW
Cosmos 1655 Rocket 4.3 22:10:24 10° N 22:15:58 60° NE 22:15:58 60° NE
USA 215 3.3 22:18:45 10° ENE 22:25:17 74° NNW 22:31:49 10° WSW
Cosmos 2237 Rocket 4.1 22:29:56 10° W 22:34:37 26° NW 22:39:21 10° NNE
ATLAS 2AS CENTAUR R/B 4.5 22:31:53 10° NW 22:37:41 27° NNE 22:43:18 10° ENE
Cosmos 2369 Rocket 3.7 23:00:06 10° NW 23:03:25 30° WNW 23:03:25 30° WNW
SL-16 R/B 3.7 23:30:58 29° NW 23:31:16 29° NW 23:36:14 10° NNE
